This is the latest recevied weather packets stored in our database for station/object YO4ISC-13. If no packets are shown the sender has not sent any weather packets the latest 10 day(s).
| Time | Temp. | Humidity | Pressure | Rain* | Wind** | Luminosity | Snow |
|---|---|---|---|---|---|---|---|
| 1777714202 | 11.67° C | 36% | 1024 hPa | - | - | - | - |
| 1777713602 | 12.22° C | 35% | 1024 hPa | - | - | - | - |
| 1777713002 | 12.78° C | 36% | 1024 hPa | - | - | - | - |
| 1777712401 | 12.22° C | 40% | 1024 hPa | - | - | - | - |
| 1777711802 | 11.67° C | 41% | 1024 hPa | - | - | - | - |
| 1777711201 | 12.22° C | 40% | 1025 hPa | - | - | - | - |
| 1777710602 | 11.67° C | 41% | 1025 hPa | - | - | - | - |
| 1777710003 | 11.67° C | 46% | 1025 hPa | - | - | - | - |
| 1777709402 | 11.67° C | 43% | 1025 hPa | - | - | - | - |
| 1777708801 | 11.67° C | 45% | 1025 hPa | - | - | - | - |
| 1777708202 | 12.22° C | 44% | 1024 hPa | - | - | - | - |
| 1777707601 | 12.22° C | 45% | 1024 hPa | - | - | - | - |
| 1777707002 | 11.67° C | 47% | 1024 hPa | - | - | - | - |
| 1777706402 | 11.67° C | 47% | 1024 hPa | - | - | - | - |
| 1777705802 | 11.11° C | 47% | 1024 hPa | - | - | - | - |
| 1777705202 | 11.67° C | 50% | 1024 hPa | - | - | - | - |
| 1777704601 | 11.67° C | 50% | 1024 hPa | - | - | - | - |
| 1777704002 | 11.11° C | 50% | 1024 hPa | - | - | - | - |
| 1777703401 | 11.11° C | 48% | 1024 hPa | - | - | - | - |
| 1777702802 | 10.56° C | 51% | 1024 hPa | - | - | - | - |
| 1777702202 | 10.56° C | 53% | 1024 hPa | - | - | - | - |
| 1777701602 | 10° C | 55% | 1024 hPa | - | - | - | - |
| 1777701002 | 9.44° C | 60% | 1024 hPa | - | - | - | - |
| 1777700401 | 8.89° C | 62% | 1024 hPa | - | - | - | - |
| 1777699802 | 8.33° C | 64% | 1024 hPa | - | - | - | - |
* Rain since midnight (hover to see other rain measurements)
** Current wind speed in m/s (hover to see current wind gust speed)